Time,TemperatureF,DewpointF,PressureIn,WindDirection,WindDirectionDegrees,WindSpeedMPH,WindSpeedGustMPH,Humidity,HourlyPrecipIn,Conditions,Clouds,dailyrainin,SoftwareType,DateUTC
2013-05-11 00:00:00,63.1,59.5,29.23,NW,315,0.0,0.0,88,0.00,,OVC240,0.00,VWS V14.01,2013-05-11 05:00:00,
2013-05-11 00:07:00,62.6,59.3,29.23,NW,315,0.0,0.0,89,0.00,,OVC240,0.00,VWS V14.01,2013-05-11 05:07:00,
2013-05-11 00:10:00,62.6,59.3,29.23,NW,315,0.0,0.0,89,0.00,,OVC240,0.00,VWS V14.01,2013-05-11 05:10:00,
2013-05-11 00:18:00,62.6,59.3,29.23,West,270,0.0,0.0,89,0.00,,OVC240,0.00,VWS V14.01,2013-05-11 05:18:00,
2013-05-11 00:20:00,62.6,59.3,29.23,West,270,0.0,0.0,89,0.00,,OVC240,0.00,VWS V14.01,2013-05-11 05:20:00,
2013-05-11 00:27:00,62.4,59.5,29.20,West,270,0.0,0.0,90,0.00,,OVC240,0.00,VWS V14.01,2013-05-11 05:27:00,
2013-05-11 00:30:00,62.4,59.5,29.20,West,270,0.0,0.0,90,0.00,,OVC240,0.00,VWS V14.01,2013-05-11 05:30:00,
2013-05-11 00:37:00,62.4,59.5,29.20,West,270,1.6,2.2,90,0.00,,OVC240,0.00,VWS V14.01,2013-05-11 05:37:00,
2013-05-11 00:40:00,62.4,59.5,29.20,West,270,1.6,2.2,90,0.00,,OVC240,0.00,VWS V14.01,2013-05-11 05:40:00,
2013-05-11 00:47:00,62.4,59.5,29.20,WNW,292,0.9,1.1,90,0.00,,OVC240,0.00,VWS V14.01,2013-05-11 05:47:00,
2013-05-11 00:50:00,62.4,59.5,29.20,WNW,292,0.9,1.1,90,0.00,,OVC240,0.00,VWS V14.01,2013-05-11 05:50:00,
2013-05-11 00:57:00,61.9,59.5,29.17,NW,315,0.0,0.0,92,0.00,,OVC240,0.00,VWS V14.01,2013-05-11 05:57:00,
2013-05-11 01:00:00,61.9,59.5,29.17,NW,315,0.0,0.0,92,0.00,,OVC240,0.00,VWS V14.01,2013-05-11 06:00:00,
2013-05-11 01:07:00,61.9,59.8,29.17,West,270,1.3,2.0,93,0.00,,OVC240,0.00,VWS V14.01,2013-05-11 06:07:00,
2013-05-11 01:10:00,61.9,59.8,29.17,West,270,1.3,2.0,93,0.00,,OVC240,0.00,VWS V14.01,2013-05-11 06:10:00,
2013-05-11 01:27:00,62.1,60.0,29.20,West,270,0.9,0.9,93,0.00,,OVC240,0.00,VWS V14.01,2013-05-11 06:27:00,
2013-05-11 01:30:00,62.1,60.0,29.20,West,270,0.9,0.9,93,0.00,,OVC240,0.00,VWS V14.01,2013-05-11 06:30:00,
2013-05-11 01:37:00,62.1,60.0,29.20,NW,315,1.1,1.1,93,0.00,,OVC240,0.00,VWS V14.01,2013-05-11 06:37:00,
2013-05-11 01:40:00,62.1,60.0,29.20,NW,315,1.1,1.1,93,0.00,,OVC240,0.00,VWS V14.01,2013-05-11 06:40:00,
2013-05-11 01:47:00,61.9,60.1,29.20,WSW,248,0.0,0.0,94,0.00,,OVC240,0.00,VWS V14.01,2013-05-11 06:47:00,
2013-05-11 01:50:00,61.9,60.1,29.20,WSW,248,0.0,0.0,94,0.00,,OVC240,0.00,VWS V14.01,2013-05-11 06:50:00,
2013-05-11 02:08:00,61.3,59.6,29.20,NW,315,0.0,0.0,94,0.00,,OVC240,0.00,VWS V14.01,2013-05-11 07:08:00,
2013-05-11 02:10:00,61.3,59.6,29.20,NW,315,0.0,0.0,94,0.00,,OVC240,0.00,VWS V14.01,2013-05-11 07:10:00,
2013-05-11 02:17:00,61.3,59.6,29.20,NW,315,0.0,0.0,94,0.00,,OVC240,0.00,VWS V14.01,2013-05-11 07:17:00,
2013-05-11 02:20:00,61.3,59.6,29.20,NW,315,0.0,0.0,94,0.00,,OVC240,0.00,VWS V14.01,2013-05-11 07:20:00,
2013-05-11 02:27:00,61.5,60.1,29.20,NW,315,0.0,0.0,95,0.00,,OVC240,0.00,VWS V14.01,2013-05-11 07:27:00,
2013-05-11 02:30:00,61.5,60.1,29.20,NW,315,0.0,0.0,95,0.00,,OVC240,0.00,VWS V14.01,2013-05-11 07:30:00,
2013-05-11 02:37:00,61.5,60.1,29.20,NW,315,0.0,0.0,95,0.00,,OVC240,0.00,VWS V14.01,2013-05-11 07:37:00,
2013-05-11 02:40:00,61.5,60.1,29.20,NW,315,0.0,0.0,95,0.00,,OVC240,0.00,VWS V14.01,2013-05-11 07:40:00,
2013-05-11 02:47:00,61.3,59.9,29.20,NW,315,0.0,0.0,95,0.00,,OVC240,0.00,VWS V14.01,2013-05-11 07:47:00,
2013-05-11 02:50:00,61.3,59.9,29.20,NW,315,0.0,0.0,95,0.00,,OVC240,0.00,VWS V14.01,2013-05-11 07:50:00,
2013-05-11 02:57:00,61.3,59.9,29.20,NW,315,0.0,0.0,95,0.00,,OVC240,0.00,VWS V14.01,2013-05-11 07:57:00,
2013-05-11 03:00:00,61.3,59.9,29.20,NW,315,0.0,0.0,95,0.00,,OVC240,0.00,VWS V14.01,2013-05-11 08:00:00,
2013-05-11 03:07:00,61.2,60.0,29.20,NW,315,0.0,0.0,96,0.00,,OVC240,0.00,VWS V14.01,2013-05-11 08:07:00,
2013-05-11 03:10:00,61.2,60.0,29.20,NW,315,0.0,0.0,96,0.00,,OVC240,0.00,VWS V14.01,2013-05-11 08:10:00,
2013-05-11 03:18:00,61.0,59.8,29.20,NW,315,0.0,0.0,96,0.00,,OVC240,0.00,VWS V14.01,2013-05-11 08:18:00,
2013-05-11 03:20:00,61.0,59.8,29.20,NW,315,0.0,0.0,96,0.00,,OVC240,0.00,VWS V14.01,2013-05-11 08:20:00,
2013-05-11 03:27:00,61.0,59.8,29.17,NW,315,0.0,0.0,96,0.00,,OVC240,0.00,VWS V14.01,2013-05-11 08:27:00,
2013-05-11 03:30:00,61.0,59.8,29.17,NW,315,0.0,0.0,96,0.00,,OVC240,0.00,VWS V14.01,2013-05-11 08:30:00,
2013-05-11 03:37:00,61.0,59.8,29.17,NW,315,0.0,0.0,96,0.00,,OVC240,0.00,VWS V14.01,2013-05-11 08:37:00,
2013-05-11 03:40:00,61.0,59.8,29.17,NW,315,0.0,0.0,96,0.00,,OVC240,0.00,VWS V14.01,2013-05-11 08:40:00,
2013-05-11 03:47:00,60.8,59.7,29.20,NW,315,0.0,0.0,96,0.00,,OVC240,0.00,VWS V14.01,2013-05-11 08:47:00,
2013-05-11 03:50:00,60.8,59.7,29.20,NW,315,0.0,0.0,96,0.00,,OVC240,0.00,VWS V14.01,2013-05-11 08:50:00,
2013-05-11 03:57:00,60.8,59.7,29.20,NW,315,0.0,0.0,96,0.00,,OVC240,0.00,VWS V14.01,2013-05-11 08:57:00,
2013-05-11 04:00:00,60.8,59.7,29.20,NW,315,0.0,0.0,96,0.00,,OVC240,0.00,VWS V14.01,2013-05-11 09:00:00,
2013-05-11 04:07:00,61.0,59.8,29.20,NW,315,0.0,0.0,96,0.00,,OVC240,0.00,VWS V14.01,2013-05-11 09:07:00,
2013-05-11 04:10:00,61.0,59.8,29.20,NW,315,0.0,0.0,96,0.00,,OVC240,0.00,VWS V14.01,2013-05-11 09:10:00,
2013-05-11 04:17:00,61.2,60.0,29.20,NW,315,0.0,0.0,96,0.00,,OVC240,0.00,VWS V14.01,2013-05-11 09:17:00,
2013-05-11 04:20:00,61.2,60.0,29.20,NW,315,0.0,0.0,96,0.00,,OVC240,0.00,VWS V14.01,2013-05-11 09:20:00,
2013-05-11 04:27:00,61.2,60.3,29.20,NW,315,0.0,0.0,97,0.00,,OVC240,0.00,VWS V14.01,2013-05-11 09:27:00,
2013-05-11 04:30:00,61.2,60.3,29.20,NW,315,0.0,0.0,97,0.00,,OVC240,0.00,VWS V14.01,2013-05-11 09:30:00,
2013-05-11 04:38:00,61.0,60.1,29.20,NW,315,0.0,0.0,97,0.00,,OVC240,0.00,VWS V14.01,2013-05-11 09:38:00,
2013-05-11 04:40:00,61.0,60.1,29.20,NW,315,0.0,0.0,97,0.00,,OVC240,0.00,VWS V14.01,2013-05-11 09:40:00,
2013-05-11 04:47:00,61.0,60.1,29.20,NW,315,0.0,0.0,97,0.00,,OVC240,0.00,VWS V14.01,2013-05-11 09:47:00,
2013-05-11 04:50:00,61.0,60.1,29.20,NW,315,0.0,0.0,97,0.00,,OVC240,0.00,VWS V14.01,2013-05-11 09:50:00,
2013-05-11 04:57:00,61.2,60.3,29.20,NW,315,0.0,0.0,97,0.00,,OVC240,0.00,VWS V14.01,2013-05-11 09:57:00,
2013-05-11 05:00:00,61.2,60.3,29.20,NW,315,0.0,0.0,97,0.00,,OVC240,0.00,VWS V14.01,2013-05-11 10:00:00,
2013-05-11 05:08:00,61.2,60.3,29.20,NNW,338,1.1,1.3,97,0.00,,OVC240,0.00,VWS V14.01,2013-05-11 10:08:00,
2013-05-11 05:10:00,61.2,60.3,29.20,NNW,338,1.1,1.3,97,0.00,,OVC240,0.00,VWS V14.01,2013-05-11 10:10:00,
2013-05-11 05:17:00,61.0,60.1,29.17,NNW,338,0.0,0.0,97,0.00,,OVC240,0.00,VWS V14.01,2013-05-11 10:17:00,
2013-05-11 05:20:00,61.0,60.1,29.17,NNW,338,0.0,0.0,97,0.00,,OVC240,0.00,VWS V14.01,2013-05-11 10:20:00,
2013-05-11 05:27:00,61.0,60.1,29.20,NNW,338,0.0,0.0,97,0.00,,OVC240,0.00,VWS V14.01,2013-05-11 10:27:00,
2013-05-11 05:30:00,61.0,60.1,29.20,NNW,338,0.0,0.0,97,0.00,,OVC240,0.00,VWS V14.01,2013-05-11 10:30:00,
2013-05-11 05:37:00,61.0,60.1,29.20,NNW,338,0.0,0.0,97,0.00,,OVC240,0.00,VWS V14.01,2013-05-11 10:37:00,
2013-05-11 05:40:00,61.0,60.1,29.20,NNW,338,0.0,0.0,97,0.00,,OVC240,0.00,VWS V14.01,2013-05-11 10:40:00,
2013-05-11 05:47:00,61.0,60.1,29.20,NNW,338,0.0,0.0,97,0.00,,OVC240,0.00,VWS V14.01,2013-05-11 10:47:00,
2013-05-11 05:50:00,61.0,60.1,29.20,NNW,338,0.0,0.0,97,0.00,,OVC240,0.00,VWS V14.01,2013-05-11 10:50:00,
2013-05-11 05:58:00,61.0,60.1,29.20,NNW,338,0.0,0.0,97,0.00,,OVC240,0.00,VWS V14.01,2013-05-11 10:58:00,
2013-05-11 06:00:00,61.0,60.1,29.20,NNW,338,0.0,0.0,97,0.00,,OVC240,0.00,VWS V14.01,2013-05-11 11:00:00,
2013-05-11 06:07:00,61.3,60.5,29.20,NNW,338,0.0,0.0,97,0.00,,OVC240,0.00,VWS V14.01,2013-05-11 11:07:00,
2013-05-11 06:10:00,61.3,60.5,29.20,NNW,338,0.0,0.0,97,0.00,,OVC240,0.00,VWS V14.01,2013-05-11 11:10:00,
2013-05-11 06:17:00,61.3,60.5,29.23,NNW,338,0.0,0.0,97,0.00,,OVC240,0.00,VWS V14.01,2013-05-11 11:17:00,
2013-05-11 06:20:00,61.3,60.5,29.23,NNW,338,0.0,0.0,97,0.00,,OVC240,0.00,VWS V14.01,2013-05-11 11:20:00,
2013-05-11 06:27:00,61.3,60.5,29.20,NNW,338,0.0,0.0,97,0.00,,OVC240,0.00,VWS V14.01,2013-05-11 11:27:00,
2013-05-11 06:30:00,61.3,60.5,29.20,NNW,338,0.0,0.0,97,0.00,,OVC240,0.00,VWS V14.01,2013-05-11 11:30:00,
2013-05-11 06:37:00,61.5,60.7,29.20,NNW,338,0.0,0.0,97,0.00,,OVC240,0.00,VWS V14.01,2013-05-11 11:37:00,
2013-05-11 06:40:00,61.5,60.7,29.20,NNW,338,0.0,0.0,97,0.00,,OVC240,0.00,VWS V14.01,2013-05-11 11:40:00,
2013-05-11 07:28:00,64.2,63.1,29.17,SSE,158,2.0,2.0,96,0.00,,OVC240,0.00,VWS V14.01,2013-05-11 12:28:00,
2013-05-11 07:30:00,64.2,63.1,29.17,SSE,158,2.0,2.0,96,0.00,,OVC240,0.00,VWS V14.01,2013-05-11 12:30:00,
2013-05-11 07:38:00,64.2,63.1,29.17,WSW,248,0.0,0.0,96,0.00,,OVC240,0.00,VWS V14.01,2013-05-11 12:38:00,
2013-05-11 07:40:00,64.2,63.1,29.17,WSW,248,0.0,0.0,96,0.00,,OVC240,0.00,VWS V14.01,2013-05-11 12:40:00,
2013-05-11 07:48:00,65.1,63.0,29.20,WSW,248,2.7,2.7,93,0.00,,OVC240,0.00,VWS V14.01,2013-05-11 12:48:00,
2013-05-11 07:50:00,65.1,63.0,29.20,WSW,248,2.7,2.7,93,0.00,,OVC240,0.00,VWS V14.01,2013-05-11 12:50:00,
2013-05-11 07:58:00,65.1,63.0,29.20,West,270,0.9,0.9,93,0.00,,OVC240,0.00,VWS V14.01,2013-05-11 12:58:00,
2013-05-11 08:00:00,65.1,63.0,29.20,West,270,0.9,0.9,93,0.00,,OVC240,0.00,VWS V14.01,2013-05-11 13:00:00,
2013-05-11 08:08:00,65.8,63.5,29.20,SE,135,2.9,3.6,92,0.00,,OVC240,0.00,VWS V14.01,2013-05-11 13:08:00,
2013-05-11 08:10:00,65.8,63.5,29.20,SE,135,2.9,3.6,92,0.00,,OVC240,0.00,VWS V14.01,2013-05-11 13:10:00,
2013-05-11 08:18:00,66.6,63.9,29.20,SE,135,2.7,2.7,91,0.00,,OVC240,0.00,VWS V14.01,2013-05-11 13:18:00,
2013-05-11 08:20:00,66.6,63.9,29.20,SE,135,2.7,2.7,91,0.00,,OVC240,0.00,VWS V14.01,2013-05-11 13:20:00,
2013-05-11 08:47:00,67.6,64.3,29.17,SE,135,1.6,2.0,89,0.00,,OVC240,0.00,VWS V14.01,2013-05-11 13:47:00,
2013-05-11 08:50:00,67.6,64.3,29.17,SE,135,1.6,2.0,89,0.00,,OVC240,0.00,VWS V14.01,2013-05-11 13:50:00,
2013-05-11 09:07:00,69.4,65.4,29.17,SSE,158,4.3,4.3,87,0.00,,OVC240,0.00,VWS V14.01,2013-05-11 14:07:00,
2013-05-11 09:10:00,69.4,65.4,29.17,SSE,158,4.3,4.3,87,0.00,,OVC240,0.00,VWS V14.01,2013-05-11 14:10:00,
2013-05-11 09:28:00,71.8,65.6,29.23,South,180,3.1,3.1,81,0.00,,OVC240,0.00,VWS V14.01,2013-05-11 14:28:00,
2013-05-11 09:30:00,71.8,65.6,29.23,South,180,3.1,3.1,81,0.00,,OVC240,0.00,VWS V14.01,2013-05-11 14:30:00,
2013-05-11 09:47:00,73.6,65.2,29.20,SW,225,4.0,4.0,75,0.00,,OVC240,0.00,VWS V14.01,2013-05-11 14:47:00,
2013-05-11 09:50:00,73.6,65.2,29.20,SW,225,4.0,4.0,75,0.00,,OVC240,0.00,VWS V14.01,2013-05-11 14:50:00,
2013-05-11 09:57:00,73.6,64.0,29.20,West,270,5.6,5.6,72,0.00,,OVC240,0.00,VWS V14.01,2013-05-11 14:57:00,
2013-05-11 10:00:00,73.6,64.0,29.20,West,270,5.6,5.6,72,0.00,,OVC240,0.00,VWS V14.01,2013-05-11 15:00:00,
2013-05-11 10:07:00,73.9,64.3,29.20,WSW,248,2.9,2.9,72,0.00,,OVC240,0.00,VWS V14.01,2013-05-11 15:07:00,
2013-05-11 10:10:00,73.9,64.3,29.20,WSW,248,2.9,2.9,72,0.00,,OVC240,0.00,VWS V14.01,2013-05-11 15:10:00,
2013-05-11 10:17:00,72.9,62.9,29.20,SE,135,5.4,5.4,71,0.00,,OVC240,0.00,VWS V14.01,2013-05-11 15:17:00,
2013-05-11 10:20:00,72.9,62.9,29.20,SE,135,5.4,5.4,71,0.00,,OVC240,0.00,VWS V14.01,2013-05-11 15:20:00,
2013-05-11 10:27:00,72.9,63.7,29.20,NE,45,1.3,3.6,73,0.00,,OVC240,0.00,VWS V14.01,2013-05-11 15:27:00,
2013-05-11 10:30:00,72.9,63.7,29.20,NE,45,1.3,3.6,73,0.00,,OVC240,0.00,VWS V14.01,2013-05-11 15:30:00,
2013-05-11 10:37:00,72.9,63.7,29.20,WNW,292,3.8,3.8,73,0.00,,OVC240,0.00,VWS V14.01,2013-05-11 15:37:00,
2013-05-11 10:40:00,72.9,63.7,29.20,WNW,292,3.8,3.8,73,0.00,,OVC240,0.00,VWS V14.01,2013-05-11 15:40:00,
2013-05-11 10:47:00,72.9,63.7,29.20,SW,225,3.1,3.1,73,0.00,,OVC240,0.00,VWS V14.01,2013-05-11 15:47:00,
2013-05-11 10:50:00,72.9,63.7,29.20,SW,225,3.1,3.1,73,0.00,,OVC240,0.00,VWS V14.01,2013-05-11 15:50:00,
2013-05-11 10:57:00,72.9,63.7,29.20,SE,135,7.2,7.2,73,0.00,,OVC240,0.00,VWS V14.01,2013-05-11 15:57:00,
2013-05-11 11:00:00,72.9,63.7,29.20,SE,135,7.2,7.2,73,0.00,,OVC240,0.00,VWS V14.01,2013-05-11 16:00:00,
2013-05-11 11:07:00,72.9,63.7,29.20,South,180,5.6,5.6,73,0.00,,OVC240,0.00,VWS V14.01,2013-05-11 16:07:00,
2013-05-11 11:10:00,72.9,63.7,29.20,South,180,5.6,5.6,73,0.00,,OVC240,0.00,VWS V14.01,2013-05-11 16:10:00,
2013-05-11 11:18:00,73.2,63.7,29.20,WSW,248,3.6,3.6,72,0.00,,OVC240,0.00,VWS V14.01,2013-05-11 16:18:00,
2013-05-11 11:20:00,73.2,63.7,29.20,WSW,248,3.6,3.6,72,0.00,,OVC240,0.00,VWS V14.01,2013-05-11 16:20:00,
2013-05-11 11:27:00,74.8,65.2,29.20,SE,135,3.8,3.8,72,0.00,,OVC240,0.00,VWS V14.01,2013-05-11 16:27:00,
2013-05-11 11:30:00,74.8,65.2,29.20,SE,135,3.8,3.8,72,0.00,,OVC240,0.00,VWS V14.01,2013-05-11 16:30:00,
2013-05-11 11:37:00,74.8,65.2,29.20,SE,135,4.9,4.9,72,0.00,,OVC240,0.00,VWS V14.01,2013-05-11 16:37:00,
2013-05-11 11:40:00,74.8,65.2,29.20,SE,135,4.9,4.9,72,0.00,,OVC240,0.00,VWS V14.01,2013-05-11 16:40:00,
2013-05-11 11:57:00,74.8,65.2,29.20,SSE,158,2.0,3.1,72,0.00,,OVC240,0.00,VWS V14.01,2013-05-11 16:57:00,
2013-05-11 12:00:00,74.8,65.2,29.20,SSE,158,2.0,3.1,72,0.00,,OVC240,0.00,VWS V14.01,2013-05-11 17:00:00,
2013-05-11 12:07:00,74.8,64.8,29.20,NW,315,2.5,2.7,71,0.00,,OVC240,0.00,VWS V14.01,2013-05-11 17:07:00,
2013-05-11 12:10:00,74.8,64.8,29.20,NW,315,2.5,2.7,71,0.00,,OVC240,0.00,VWS V14.01,2013-05-11 17:10:00,
2013-05-11 12:17:00,71.4,63.5,29.20,North,0,2.0,3.4,76,0.00,,OVC240,0.00,VWS V14.01,2013-05-11 17:17:00,
2013-05-11 12:20:00,71.4,63.5,29.20,North,0,2.0,3.4,76,0.00,,OVC240,0.00,VWS V14.01,2013-05-11 17:20:00,
2013-05-11 12:27:00,70.7,63.1,29.17,West,270,0.0,0.0,77,0.00,,OVC240,0.00,VWS V14.01,2013-05-11 17:27:00,
2013-05-11 12:30:00,70.7,63.1,29.17,West,270,0.0,0.0,77,0.00,,OVC240,0.00,VWS V14.01,2013-05-11 17:30:00,
2013-05-11 12:37:00,75.6,68.2,29.17,West,270,1.6,3.8,78,0.00,,OVC240,0.00,VWS V14.01,2013-05-11 17:37:00,
2013-05-11 12:40:00,75.6,68.2,29.17,West,270,1.6,3.8,78,0.00,,OVC240,0.00,VWS V14.01,2013-05-11 17:40:00,
2013-05-11 12:47:00,78.3,66.8,29.17,SE,135,3.6,3.6,68,0.00,,OVC240,0.00,VWS V14.01,2013-05-11 17:47:00,
2013-05-11 12:50:00,78.3,66.8,29.17,SE,135,3.6,3.6,68,0.00,,OVC240,0.00,VWS V14.01,2013-05-11 17:50:00,
2013-05-11 12:57:00,78.6,65.0,29.17,NW,315,3.1,3.1,63,0.00,,OVC240,0.00,VWS V14.01,2013-05-11 17:57:00,
2013-05-11 13:00:00,78.6,65.0,29.17,NW,315,3.1,3.1,63,0.00,,OVC240,0.00,VWS V14.01,2013-05-11 18:00:00,
2013-05-11 13:07:00,78.3,64.2,29.17,SE,135,1.6,2.7,62,0.00,,OVC240,0.00,VWS V14.01,2013-05-11 18:07:00,
2013-05-11 13:10:00,78.3,64.2,29.17,SE,135,1.6,2.7,62,0.00,,OVC240,0.00,VWS V14.01,2013-05-11 18:10:00,
2013-05-11 13:17:00,82.2,65.0,29.17,NNW,338,1.6,1.6,56,0.00,,OVC240,0.00,VWS V14.01,2013-05-11 18:17:00,
2013-05-11 13:20:00,82.2,65.0,29.17,NNW,338,1.6,1.6,56,0.00,,OVC240,0.00,VWS V14.01,2013-05-11 18:20:00,
2013-05-11 13:28:00,83.1,64.2,29.20,NNE,22,3.6,3.8,53,0.00,,OVC240,0.00,VWS V14.01,2013-05-11 18:28:00,
2013-05-11 13:30:00,83.1,64.2,29.20,NNE,22,3.6,3.8,53,0.00,,OVC240,0.00,VWS V14.01,2013-05-11 18:30:00,
2013-05-11 13:37:00,82.6,60.3,29.20,South,180,3.4,6.0,47,0.00,,OVC240,0.00,VWS V14.01,2013-05-11 18:37:00,
2013-05-11 13:40:00,82.6,60.3,29.20,South,180,3.4,6.0,47,0.00,,OVC240,0.00,VWS V14.01,2013-05-11 18:40:00,
2013-05-11 13:47:00,83.1,61.4,29.17,NE,45,1.3,2.0,48,0.00,,OVC240,0.00,VWS V14.01,2013-05-11 18:47:00,
2013-05-11 13:50:00,83.1,61.4,29.17,NE,45,1.3,2.0,48,0.00,,OVC240,0.00,VWS V14.01,2013-05-11 18:50:00,
2013-05-11 13:57:00,78.6,57.9,29.20,West,270,2.9,3.8,49,0.00,,OVC240,0.00,VWS V14.01,2013-05-11 18:57:00,
2013-05-11 14:00:00,78.6,57.9,29.20,West,270,2.9,3.8,49,0.00,,OVC240,0.00,VWS V14.01,2013-05-11 19:00:00,
2013-05-11 14:07:00,81.1,60.2,29.20,SE,135,3.6,3.6,49,0.00,,OVC240,0.00,VWS V14.01,2013-05-11 19:07:00,
2013-05-11 14:10:00,81.1,60.2,29.20,SE,135,3.6,3.6,49,0.00,,OVC240,0.00,VWS V14.01,2013-05-11 19:10:00,
2013-05-11 14:17:00,77.4,57.8,29.20,SW,225,2.5,2.7,51,0.00,,OVC240,0.00,VWS V14.01,2013-05-11 19:17:00,
2013-05-11 14:20:00,77.4,57.8,29.20,SW,225,2.5,2.7,51,0.00,,OVC240,0.00,VWS V14.01,2013-05-11 19:20:00,
2013-05-11 14:27:00,81.0,59.4,29.20,SW,225,8.5,8.5,48,0.00,,OVC240,0.00,VWS V14.01,2013-05-11 19:27:00,
2013-05-11 14:30:00,81.0,59.4,29.20,SW,225,8.5,8.5,48,0.00,,OVC240,0.00,VWS V14.01,2013-05-11 19:30:00,
2013-05-11 14:38:00,83.3,61.0,29.20,NE,45,3.8,5.4,47,0.00,,OVC240,0.00,VWS V14.01,2013-05-11 19:38:00,
2013-05-11 14:40:00,83.3,61.0,29.20,NE,45,3.8,5.4,47,0.00,,OVC240,0.00,VWS V14.01,2013-05-11 19:40:00,
2013-05-11 14:47:00,82.8,59.3,29.17,NW,315,0.0,1.3,45,0.00,,OVC240,0.00,VWS V14.01,2013-05-11 19:47:00,
2013-05-11 14:50:00,82.8,59.3,29.17,NW,315,0.0,1.3,45,0.00,,OVC240,0.00,VWS V14.01,2013-05-11 19:50:00,
2013-05-11 14:57:00,78.8,57.5,29.17,ESE,112,1.6,2.5,48,0.00,,OVC240,0.00,VWS V14.01,2013-05-11 19:57:00,
2013-05-11 15:00:00,78.8,57.5,29.17,ESE,112,1.6,2.5,48,0.00,,OVC240,0.00,VWS V14.01,2013-05-11 20:00:00,
2013-05-11 15:08:00,82.2,60.6,29.17,West,270,6.3,6.3,48,0.00,,OVC240,0.00,VWS V14.01,2013-05-11 20:08:00,
2013-05-11 15:10:00,82.2,60.6,29.17,West,270,6.3,6.3,48,0.00,,OVC240,0.00,VWS V14.01,2013-05-11 20:10:00,
2013-05-11 15:17:00,80.2,58.2,29.17,WSW,248,6.0,6.0,47,0.00,,OVC240,0.00,VWS V14.01,2013-05-11 20:17:00,
2013-05-11 15:20:00,80.2,58.2,29.17,WSW,248,6.0,6.0,47,0.00,,OVC240,0.00,VWS V14.01,2013-05-11 20:20:00,
2013-05-11 15:27:00,78.3,57.0,29.14,South,180,3.1,5.4,48,0.00,,OVC240,0.00,VWS V14.01,2013-05-11 20:27:00,
2013-05-11 15:30:00,78.3,57.0,29.15,South,180,3.1,5.4,48,0.00,,OVC240,0.00,VWS V14.01,2013-05-11 20:30:00,
2013-05-11 15:37:00,78.4,57.7,29.14,SW,225,1.1,4.0,49,0.00,,OVC240,0.00,VWS V14.01,2013-05-11 20:37:00,
2013-05-11 15:40:00,78.4,57.7,29.15,SW,225,1.1,4.0,49,0.00,,OVC240,0.00,VWS V14.01,2013-05-11 20:40:00,
2013-05-11 15:47:00,77.4,56.7,29.17,SW,225,2.7,2.7,49,0.00,,OVC240,0.00,VWS V14.01,2013-05-11 20:47:00,
2013-05-11 15:50:00,77.4,56.7,29.17,SW,225,2.7,2.7,49,0.00,,OVC240,0.00,VWS V14.01,2013-05-11 20:50:00,
2013-05-11 16:07:00,79.0,57.6,29.17,WSW,248,4.3,4.3,48,0.00,,OVC240,0.00,VWS V14.01,2013-05-11 21:07:00,
2013-05-11 16:10:00,79.0,57.6,29.17,WSW,248,4.3,4.3,48,0.00,,OVC240,0.00,VWS V14.01,2013-05-11 21:10:00,
2013-05-11 16:17:00,77.9,56.7,29.17,North,0,1.6,2.7,48,0.04,,OVC240,0.04,VWS V14.01,2013-05-11 21:17:00,
2013-05-11 16:20:00,77.9,56.7,29.17,North,0,1.6,2.7,48,0.04,,OVC240,0.04,VWS V14.01,2013-05-11 21:20:00,
2013-05-11 16:27:00,75.9,55.4,29.17,ENE,68,4.3,5.8,49,0.04,,OVC240,0.04,VWS V14.01,2013-05-11 21:27:00,
2013-05-11 16:30:00,75.9,55.4,29.17,ENE,68,4.3,5.8,49,0.04,,OVC240,0.04,VWS V14.01,2013-05-11 21:30:00,
2013-05-11 16:37:00,74.3,54.5,29.17,SW,225,2.7,2.7,50,0.04,,OVC240,0.04,VWS V14.01,2013-05-11 21:37:00,
2013-05-11 16:40:00,74.3,54.5,29.17,SW,225,2.7,2.7,50,0.04,,OVC240,0.04,VWS V14.01,2013-05-11 21:40:00,
2013-05-11 16:47:00,74.5,55.2,29.17,SE,135,2.0,2.5,51,0.04,,OVC240,0.04,VWS V14.01,2013-05-11 21:47:00,
2013-05-11 16:50:00,74.5,55.2,29.17,SE,135,2.0,2.5,51,0.04,,OVC240,0.04,VWS V14.01,2013-05-11 21:50:00,
2013-05-11 17:07:00,73.6,55.4,29.14,SW,225,1.6,2.9,53,0.04,,OVC240,0.04,VWS V14.01,2013-05-11 22:07:00,
2013-05-11 17:10:00,73.6,55.4,29.15,SW,225,1.6,2.9,53,0.04,,OVC240,0.04,VWS V14.01,2013-05-11 22:10:00,
2013-05-11 17:17:00,73.8,55.6,29.14,ENE,68,2.0,2.0,53,0.04,,OVC240,0.04,VWS V14.01,2013-05-11 22:17:00,
2013-05-11 17:20:00,73.8,55.6,29.15,ENE,68,2.0,2.0,53,0.04,,OVC240,0.04,VWS V14.01,2013-05-11 22:20:00,
2013-05-11 17:27:00,75.6,58.3,29.12,West,270,2.2,2.2,55,0.00,,OVC240,0.04,VWS V14.01,2013-05-11 22:27:00,
2013-05-11 17:30:00,75.6,58.3,29.11,West,270,2.2,2.2,55,0.00,,OVC240,0.04,VWS V14.01,2013-05-11 22:30:00,
2013-05-11 17:37:00,74.3,56.1,29.12,NE,45,2.0,3.8,53,0.00,,OVC240,0.04,VWS V14.01,2013-05-11 22:37:00,
2013-05-11 17:40:00,74.3,56.1,29.11,NE,45,2.0,3.8,53,0.00,,OVC240,0.04,VWS V14.01,2013-05-11 22:40:00,
2013-05-11 17:47:00,72.9,55.3,29.14,SSW,202,5.4,5.4,54,0.00,,OVC240,0.04,VWS V14.01,2013-05-11 22:47:00,
2013-05-11 17:50:00,72.9,55.3,29.15,SSW,202,5.4,5.4,54,0.00,,OVC240,0.04,VWS V14.01,2013-05-11 22:50:00,
2013-05-11 17:57:00,72.1,55.1,29.14,SE,135,3.1,3.6,55,0.00,,OVC240,0.04,VWS V14.01,2013-05-11 22:57:00,
2013-05-11 18:00:00,72.1,55.1,29.15,SE,135,3.1,3.6,55,0.00,,OVC240,0.04,VWS V14.01,2013-05-11 23:00:00,
2013-05-11 18:07:00,72.1,55.6,29.14,ENE,68,2.5,3.6,56,0.00,,OVC240,0.04,VWS V14.01,2013-05-11 23:07:00,
2013-05-11 18:10:00,72.1,55.6,29.15,ENE,68,2.5,3.6,56,0.00,,OVC240,0.04,VWS V14.01,2013-05-11 23:10:00,
2013-05-11 18:18:00,70.5,55.5,29.14,WNW,292,1.3,3.6,59,0.00,,OVC240,0.04,VWS V14.01,2013-05-11 23:18:00,
2013-05-11 18:20:00,70.5,55.5,29.15,WNW,292,1.3,3.6,59,0.00,,OVC240,0.04,VWS V14.01,2013-05-11 23:20:00,
2013-05-11 18:27:00,69.6,55.6,29.17,NE,45,0.0,0.0,61,0.00,,OVC240,0.04,VWS V14.01,2013-05-11 23:27:00,
2013-05-11 18:30:00,69.6,55.6,29.17,NE,45,0.0,0.0,61,0.00,,OVC240,0.04,VWS V14.01,2013-05-11 23:30:00,
2013-05-11 18:48:00,68.4,55.7,29.17,NE,45,3.4,5.6,64,0.00,,OVC240,0.04,VWS V14.01,2013-05-11 23:48:00,
2013-05-11 18:50:00,68.4,55.7,29.17,NE,45,3.4,5.6,64,0.00,,OVC240,0.04,VWS V14.01,2013-05-11 23:50:00,
2013-05-11 18:57:00,67.5,56.5,29.20,NW,315,2.0,2.2,68,0.00,,OVC240,0.04,VWS V14.01,2013-05-11 23:57:00,
2013-05-11 19:00:00,67.5,56.5,29.20,NW,315,2.0,2.2,68,0.00,,OVC240,0.04,VWS V14.01,2013-05-12 00:00:00,
2013-05-11 19:07:00,66.7,56.3,29.20,West,270,1.3,1.3,69,0.00,,OVC240,0.04,VWS V14.01,2013-05-12 00:07:00,
2013-05-11 19:10:00,66.7,56.3,29.20,West,270,1.3,1.3,69,0.00,,OVC240,0.04,VWS V14.01,2013-05-12 00:10:00,
2013-05-11 19:17:00,66.6,56.1,29.17,NE,45,0.9,1.3,69,0.00,,OVC240,0.04,VWS V14.01,2013-05-12 00:17:00,
2013-05-11 19:20:00,66.6,56.1,29.17,NE,45,0.9,1.3,69,0.00,,OVC240,0.04,VWS V14.01,2013-05-12 00:20:00,
2013-05-11 19:27:00,66.0,55.2,29.20,NNE,22,2.9,2.9,68,0.00,,OVC240,0.04,VWS V14.01,2013-05-12 00:27:00,
2013-05-11 19:30:00,66.0,55.2,29.20,NNE,22,2.9,2.9,68,0.00,,OVC240,0.04,VWS V14.01,2013-05-12 00:30:00,
2013-05-11 19:37:00,65.8,55.0,29.20,North,0,4.7,5.6,68,0.00,,OVC240,0.04,VWS V14.01,2013-05-12 00:37:00,
2013-05-11 19:40:00,65.8,55.0,29.20,North,0,4.7,5.6,68,0.00,,OVC240,0.04,VWS V14.01,2013-05-12 00:40:00,
2013-05-11 19:47:00,64.9,54.9,29.17,North,0,1.3,1.3,70,0.00,,OVC240,0.04,VWS V14.01,2013-05-12 00:47:00,
2013-05-11 19:50:00,64.9,54.9,29.17,North,0,1.3,1.3,70,0.00,,OVC240,0.04,VWS V14.01,2013-05-12 00:50:00,
2013-05-11 19:57:00,63.9,54.3,29.20,North,0,0.0,1.1,71,0.00,,OVC240,0.04,VWS V14.01,2013-05-12 00:57:00,
2013-05-11 20:00:00,63.9,54.3,29.20,North,0,0.0,1.1,71,0.00,,OVC240,0.04,VWS V14.01,2013-05-12 01:00:00,
2013-05-11 20:07:00,63.1,54.0,29.20,NNW,338,1.6,1.6,72,0.00,,OVC240,0.04,VWS V14.01,2013-05-12 01:07:00,
2013-05-11 20:10:00,63.1,54.0,29.20,NNW,338,1.6,1.6,72,0.00,,OVC240,0.04,VWS V14.01,2013-05-12 01:10:00,
2013-05-11 20:17:00,63.0,54.2,29.23,SE,135,3.6,6.5,73,0.00,,OVC240,0.04,VWS V14.01,2013-05-12 01:17:00,
2013-05-11 20:20:00,63.0,54.2,29.23,SE,135,3.6,6.5,73,0.00,,OVC240,0.04,VWS V14.01,2013-05-12 01:20:00,
2013-05-11 20:27:00,62.8,53.6,29.23,NNW,338,1.3,1.6,72,0.00,,OVC240,0.04,VWS V14.01,2013-05-12 01:27:00,
2013-05-11 20:30:00,62.8,53.6,29.23,NNW,338,1.3,1.6,72,0.00,,OVC240,0.04,VWS V14.01,2013-05-12 01:30:00,
2013-05-11 20:47:00,61.0,54.1,29.26,NW,315,3.6,3.6,78,0.00,,OVC240,0.04,VWS V14.01,2013-05-12 01:47:00,
2013-05-11 20:50:00,61.0,54.1,29.26,NW,315,3.6,3.6,78,0.00,,OVC240,0.04,VWS V14.01,2013-05-12 01:50:00,
2013-05-11 20:58:00,61.0,54.1,29.26,East,90,2.0,2.0,78,0.00,,OVC240,0.04,VWS V14.01,2013-05-12 01:58:00,
2013-05-11 21:00:00,61.0,54.1,29.26,East,90,2.0,2.0,78,0.00,,OVC240,0.04,VWS V14.01,2013-05-12 02:00:00,
2013-05-11 21:07:00,60.3,53.4,29.26,West,270,0.0,0.9,78,0.00,,OVC240,0.04,VWS V14.01,2013-05-12 02:07:00,
2013-05-11 21:10:00,60.3,53.4,29.26,West,270,0.0,0.9,78,0.00,,OVC240,0.04,VWS V14.01,2013-05-12 02:10:00,
2013-05-11 21:17:00,58.5,52.3,29.26,West,270,0.0,0.0,80,0.00,,OVC240,0.04,VWS V14.01,2013-05-12 02:17:00,
2013-05-11 21:20:00,58.5,52.3,29.26,West,270,0.0,0.0,80,0.00,,OVC240,0.04,VWS V14.01,2013-05-12 02:20:00,
2013-05-11 21:27:00,57.4,51.9,29.23,West,270,0.0,0.0,82,0.00,,OVC240,0.04,VWS V14.01,2013-05-12 02:27:00,
2013-05-11 21:30:00,57.4,51.9,29.23,West,270,0.0,0.0,82,0.00,,OVC240,0.04,VWS V14.01,2013-05-12 02:30:00,
2013-05-11 21:47:00,55.9,51.5,29.26,NW,315,2.0,2.0,85,0.00,,OVC240,0.04,VWS V14.01,2013-05-12 02:47:00,
2013-05-11 21:50:00,55.9,51.5,29.26,NW,315,2.0,2.0,85,0.00,,OVC240,0.04,VWS V14.01,2013-05-12 02:50:00,
2013-05-11 21:57:00,55.9,51.8,29.26,NW,315,1.1,2.0,86,0.00,,OVC240,0.04,VWS V14.01,2013-05-12 02:57:00,
2013-05-11 22:00:00,55.9,51.8,29.26,NW,315,1.1,2.0,86,0.00,,OVC240,0.04,VWS V14.01,2013-05-12 03:00:00,
2013-05-11 22:07:00,55.6,52.4,29.26,North,0,1.1,1.1,89,0.00,,OVC240,0.04,VWS V14.01,2013-05-12 03:07:00,
2013-05-11 22:10:00,55.6,52.4,29.26,North,0,1.1,1.1,89,0.00,,OVC240,0.04,VWS V14.01,2013-05-12 03:10:00,
2013-05-11 22:17:00,54.5,51.0,29.23,NW,315,0.9,0.9,88,0.00,,OVC240,0.04,VWS V14.01,2013-05-12 03:17:00,
2013-05-11 22:27:00,54.1,51.0,29.26,NW,315,2.0,2.0,89,0.00,,OVC240,0.04,VWS V14.01,2013-05-12 03:27:00,
2013-05-11 22:37:00,54.1,51.6,29.26,NW,315,2.7,2.7,91,0.00,,OVC240,0.04,VWS V14.01,2013-05-12 03:37:00,
2013-05-11 22:47:00,53.6,51.0,29.23,West,270,0.0,2.7,91,0.00,,OVC240,0.04,VWS V14.01,2013-05-12 03:47:00,
2013-05-11 23:07:00,54.1,51.9,29.23,North,0,0.0,2.7,92,0.00,,OVC240,0.04,VWS V14.01,2013-05-12 04:07:00,
2013-05-11 23:17:00,53.4,51.2,29.23,North,0,1.3,2.7,92,0.00,,OVC240,0.04,VWS V14.01,2013-05-12 04:17:00,
2013-05-11 23:27:00,53.2,51.0,29.23,NE,45,0.0,2.7,92,0.00,,OVC240,0.04,VWS V14.01,2013-05-12 04:27:00,
2013-05-11 23:37:00,52.9,50.6,29.23,WNW,292,1.6,1.6,92,0.00,,OVC240,0.04,VWS V14.01,2013-05-12 04:37:00,
2013-05-11 23:47:00,52.7,50.5,29.23,North,0,0.9,1.6,92,0.00,,OVC240,0.04,VWS V14.01,2013-05-12 04:47:00,
2013-05-11 23:57:00,54.0,51.7,29.26,NNW,338,2.5,2.5,92,0.00,,OVC240,0.04,VWS V14.01,2013-05-12 04:57:00,